This demonstration page uses our WeatherBlox Daily Observations layout. Learn more.

Hourly Observations for September 11, 2018

Temp ( °F °C ) Dew Point ( °F °C ) Humidity (%) Winds ( mph kmh ) Pressure ( in mb ) Visibility ( mi km ) Precip ( " mm )
12:15 am 00:15 Clear 62 16.8 60 15.6 93 93 SSE 12 19 29.91 1013 10 16.09344 0 0
12:35 am 00:35 Clear 62 16.5 60 15.6 94 94 S 12 19 29.91 1013 10 16.09344 0 0
12:55 am 00:55 Clear 62 16.5 60 15.6 94 94 S 9 15 29.91 1013 10 16.09344 0 0
1:15 am 01:15 Clear 61 16.2 60 15.5 96 96 SSE 10 17 29.94 1014 10 16.09344 0 0
1:35 am 01:35 Clear 61 16 60 15.3 96 96 S 10 17 29.91 1013 10 16.09344 0 0
1:55 am 01:55 Clear 60 15.8 59 15.2 96 96 S 10 17 29.91 1013 10 16.09344 0 0
2:15 am 02:15 Clear 60 15.7 59 15.2 97 97 SSE 12 19 29.91 1013 10 16.09344 0 0
2:35 am 02:35 Clear 60 15.6 59 15.2 97 97 S 10 17 29.94 1014 10 16.09344 0 0
2:55 am 02:55 Clear 60 15.5 59 15.1 97 97 S 9 15 29.94 1014 10 16.09344 0 0
3:15 am 03:15 Clear 60 15.3 59 15 98 98 S 9 15 29.94 1014 10 16.09344 0 0
3:35 am 03:35 Clear 59 15.2 59 15 99 99 S 8 13 29.94 1014 10 16.09344 0 0
3:55 am 03:55 Clear 60 15.3 59 15 98 98 S 10 17 29.94 1014 10 16.09344 0 0
4:15 am 04:15 Clear 59 15.2 59 15 99 99 S 13 20 29.94 1014 10 16.09344 0 0
4:35 am 04:35 Clear 59 15 59 14.9 99 99 S 13 20 29.94 1014 10 16.09344 0 0
4:55 am 04:55 Clear 59 15 59 14.8 99 99 SSE 13 20 29.94 1014 10 16.09344 0 0
5:15 am 05:15 Clear 59 14.8 58 14.7 99 99 S 13 20 29.94 1014 10 16.09344 0 0
5:35 am 05:35 Clear 58 14.7 58 14.6 99 99 SSE 12 19 29.94 1014 10 16.09344 0 0
5:55 am 05:55 Clear 58 14.5 58 14.5 100 100 SSE 10 17 29.94 1014 7 11.265408 0 0
6:15 am 06:15 Clear 58 14.5 58 14.5 100 100 SSE 10 17 29.94 1014 7 11.265408 0 0
6:35 am 06:35 Clear 58 14.5 58 14.5 100 100 SSE 10 17 29.94 1014 7 11.265408 0 0
6:55 am 06:55 Clear 58 14.5 58 14.5 100 100 SSE 12 19 29.94 1014 7 11.265408 0 0
7:15 am 07:15 Sunny 58 14.5 58 14.5 100 100 S 10 17 29.94 1014 7 11.265408 0 0
7:35 am 07:35 Sunny 58 14.5 58 14.5 100 100 S 12 19 29.94 1014 7 11.265408 0 0
7:55 am 07:55 Sunny 59 14.8 58 14.6 99 99 S 13 20 29.94 1014 7 11.265408 0 0
8:15 am 08:15 Sunny 59 15.1 59 14.8 98 98 S 12 19 29.94 1014 10 16.09344 0 0
8:35 am 08:35 Sunny 60 15.7 59 15.2 97 97 S 12 19 29.91 1013 10 16.09344 0 0
8:55 am 08:55 Sunny 62 16.4 60 15.5 94 94 S 13 20 29.91 1013 10 16.09344 0 0
9:15 am 09:15 Sunny 63 17.1 60 15.8 92 92 S 13 20 29.91 1013 10 16.09344 0 0
9:35 am 09:35 Sunny 64 18 61 16 88 88 S 17 28 29.91 1013 10 16.09344 0 0
9:55 am 09:55 Sunny 66 18.7 62 16.4 87 87 S 15 24 29.91 1013 10 16.09344 0 0
10:15 am 10:15 Sunny 68 19.9 62 16.7 82 82 S 16 26 29.88 1012 10 16.09344 0 0
10:35 am 10:35 Sunny 69 20.8 63 17.1 79 79 S 16 26 29.88 1012 10 16.09344 0 0
10:55 am 10:55 Sunny 71 21.4 63 17.3 78 78 S 15 24 29.88 1012 10 16.09344 0 0
11:15 am 11:15 Sunny 71 21.8 63 17.4 76 76 S 18 30 29.88 1012 10 16.09344 0 0
11:35 am 11:35 Sunny 73 22.9 64 17.7 73 73 S 17 28 29.85 1011 10 16.09344 0 0
11:55 am 11:55 Sunny 74 23.5 64 17.9 71 71 S 18 30 29.85 1011 10 16.09344 0 0
12:15 pm 12:15 Sunny 76 24.5 64 18 67 67 S 16 26 29.83 1010 10 16.09344 0 0
12:35 pm 12:35 Sunny 77 24.8 64 17.9 66 66 S 20 31 29.83 1010 10 16.09344 0 0
12:55 pm 12:55 Sunny 78 25.8 65 18.2 63 63 S 21 33 29.83 1010 10 16.09344 0 0
1:15 pm 13:15 Sunny 79 26.1 65 18.3 62 62 S 20 31 29.83 1010 10 16.09344 0 0
1:35 pm 13:35 Sunny 80 26.6 65 18.3 60 60 S 17 28 29.8 1009 10 16.09344 0 0
1:55 pm 13:55 Sunny 80 26.7 65 18.5 61 61 S 18 30 29.8 1009 10 16.09344 0 0
2:15 pm 14:15 Sunny 80 26.7 65 18.5 61 61 S 18 30 29.8 1009 10 16.09344 0 0
2:35 pm 14:35 Sunny 81 27.2 65 18.6 59 59 S 22 35 29.8 1009 10 16.09344 0 0
2:55 pm 14:55 Sunny 81 27.4 65 18.6 59 59 S 20 31 29.8 1009 10 16.09344 0 0
3:15 pm 15:15 Sunny 82 27.5 65 18.6 58 58 S 18 30 29.77 1008 10 16.09344 0 0
3:35 pm 15:35 Sunny 82 27.6 65 18.6 58 58 SSE 21 33 29.77 1008 10 16.09344 0 0
3:55 pm 15:55 Sunny 82 27.5 65 18.4 58 58 SSE 25 41 29.77 1008 10 16.09344 0 0
4:15 pm 16:15 Sunny 82 27.6 65 18.5 58 58 S 18 30 29.77 1008 10 16.09344 0 0
4:35 pm 16:35 Sunny 82 27.7 65 18.3 57 57 S 18 30 29.77 1008 10 16.09344 0 0
4:55 pm 16:55 Sunny 82 27.9 65 18.3 56 56 S 18 30 29.77 1008 10 16.09344 0 0
5:15 pm 17:15 Sunny 82 27.5 65 18.1 57 57 S 20 31 29.77 1008 10 16.09344 0 0
5:35 pm 17:35 Sunny 81 27.3 65 18.1 57 57 SSE 20 31 29.77 1008 10 16.09344 0 0
5:55 pm 17:55 Sunny 81 27 65 18.1 58 58 SSE 17 28 29.77 1008 10 16.09344 0 0
6:15 pm 18:15 Sunny 80 26.6 65 18.1 60 60 S 16 26 29.77 1008 10 16.09344 0 0
6:35 pm 18:35 Sunny 79 26 65 18.1 62 62 SSE 16 26 29.77 1008 10 16.09344 0 0
6:55 pm 18:55 Sunny 78 25.4 65 18.2 64 64 SSE 17 28 29.77 1008 10 16.09344 0 0
7:15 pm 19:15 Sunny 76 24.6 65 18.2 68 68 SSE 14 22 29.77 1008 10 16.09344 0 0
7:35 pm 19:35 Sunny 75 23.7 64 18 71 71 SSE 14 22 29.8 1009 10 16.09344 0 0
7:55 pm 19:55 Clear 73 23 64 17.7 72 72 SSE 15 24 29.8 1009 10 16.09344 0 0
8:15 pm 20:15 Clear 72 22.1 64 17.7 76 76 SSE 9 15 29.83 1010 10 16.09344 0 0
8:35 pm 20:35 Clear 71 21.4 64 17.5 79 79 SSE 12 19 29.83 1010 10 16.09344 0 0
8:55 pm 20:55 Clear 70 20.9 63 17.3 80 80 SSE 12 19 29.85 1011 10 16.09344 0 0
9:15 pm 21:15 Clear 69 20.5 63 17.2 81 81 SSE 12 19 29.85 1011 10 16.09344 0 0
9:35 pm 21:35 Clear 68 20.1 63 17 82 82 SSE 12 19 29.85 1011 10 16.09344 0 0
9:55 pm 21:55 Clear 68 19.8 62 16.6 82 82 SSE 13 20 29.85 1011 10 16.09344 0 0
10:15 pm 22:15 Clear 67 19.6 62 16.5 82 82 SSE 13 20 29.88 1012 10 16.09344 0 0
10:35 pm 22:35 Clear 67 19.5 61 16.3 82 82 SSE 12 19 29.88 1012 10 16.09344 0 0
10:55 pm 22:55 Clear 67 19.5 61 16.1 81 81 SSE 13 20 29.88 1012 10 16.09344 0 0
11:15 pm 23:15 Clear 67 19.3 61 16.1 82 82 SSE 14 22 29.88 1012 10 16.09344 0 0
11:35 pm 23:35 Clear 67 19.2 61 16.1 82 82 SSE 12 19 29.88 1012 10 16.09344 0 0
11:55 pm 23:55 Clear 66 19 61 16.2 84 84 S 13 20 29.91 1013 10 16.09344 0 0

Powered by AerisWeather